This is the latest recevied weather packets stored in our database for station/object KE5JQA-1. If no packets are shown the sender has not sent any weather packets the latest 10 day(s).
| Time | Temp. | Humidity | Pressure | Rain* | Wind** | Luminosity | Snow |
|---|---|---|---|---|---|---|---|
| 1777507217 | 17.78° C | 40% | 1012.8 hPa | 0 mm | - | - | - |
| 1777506617 | 17.78° C | 40% | 1012.6 hPa | 0 mm | - | - | - |
| 1777501217 | 17.22° C | 40% | 1012.4 hPa | 0 mm | - | - | - |
| 1777498817 | 17.22° C | 40% | 1013 hPa | 0 mm | - | - | - |
| 1777497917 | 17.22° C | 40% | 1013.1 hPa | 0 mm | - | - | - |
| 1777497638 | 17.22° C | 40% | 1013.2 hPa | 0 mm | - | - | - |
| 1777497016 | 17.22° C | 40% | 1013.4 hPa | 0 mm | - | - | - |
| 1777493418 | 17.78° C | 40% | 1013.6 hPa | 0.25 mm | - | - | - |
| 1777491618 | 18.33° C | 40% | 1013.9 hPa | 0.25 mm | - | - | - |
| 1777490117 | 18.33° C | 40% | 1013.5 hPa | 0 mm | - | - | - |
| 1777489817 | 18.33° C | 40% | 1013.4 hPa | 0 mm | - | - | - |
| 1777489217 | 18.33° C | 40% | 1013.6 hPa | 0 mm | - | - | - |
| 1777487117 | 20° C | 39% | 1014 hPa | 0 mm | - | - | - |
| 1777484416 | 20° C | 39% | 1014.4 hPa | 0 mm | - | - | - |
| 1777482617 | 20° C | 39% | 1014.3 hPa | 0.25 mm | - | - | - |
| 1777482317 | 20° C | 39% | 1014.6 hPa | 0.25 mm | - | - | - |
| 1777481717 | 20° C | 39% | 1014.8 hPa | 0.51 mm | - | - | - |
| 1777475717 | 23.89° C | 37% | 1014.5 hPa | 0 mm | - | - | - |
| 1777474216 | 23.89° C | 37% | 1014 hPa | 0 mm | - | - | - |
| 1777473956 | 23.89° C | 37% | 1014.1 hPa | 0 mm | - | - | - |
| 1777473317 | 23.89° C | 37% | 1014.2 hPa | 0 mm | - | - | - |
| 1777461017 | 23.33° C | 36% | 1012.8 hPa | 0 mm | - | - | - |
| 1777457737 | 23.33° C | 36% | 1012.9 hPa | 0 mm | - | - | - |
| 1777456838 | 23.33° C | 36% | 1013 hPa | 0 mm | - | - | - |
| 1777453817 | 23.33° C | 36% | 1012.6 hPa | 0 mm | - | - | - |
* Rain latest hour (hover to see other rain measurements)
** Current wind speed in m/s (hover to see current wind gust speed)